K9XP Weather Reports


Display with metric or nautical units.
time (UTC)temp
F
wind
direction
speed
MPH
gust
MPH
rain 1hr
in
rain 24hr
in
rain mn
in
humidity
%
barometer
mb
20260504050502 57 264 0.0 4.0 0.00 0.10 0.00 69 1005.3
20260504050001 57 270 0.0 6.0 0.00 0.10 0.10 68 1005.4
20260504045602 58 229 0.0 6.0 0.00 0.10 0.10 68 1005.4
20260504045100 58 263 0.0 6.0 0.00 0.10 0.10 67 1005.4
20260504044600 58 267 1.0 8.0 0.00 0.10 0.10 66 1005.4
20260504044059 58 251 3.0 8.0 0.00 0.10 0.10 66 1005.4
20260504043600 58 305 2.0 7.0 0.00 0.10 0.10 66 1005.3
20260504043115 58 249 1.0 5.0 0.00 0.10 0.10 65 1005.3
20260504042600 58 265 1.0 5.0 0.00 0.10 0.10 65 1005.4
20260504042059 58 185 1.0 5.0 0.00 0.10 0.10 64 1005.2
20260504041559 58 229 1.0 4.0 0.00 0.10 0.10 64 1005.2
20260504041059 59 269 1.0 7.0 0.00 0.10 0.10 63 1005.2
20260504040559 59 264 1.0 7.0 0.00 0.10 0.10 63 1005.2
20260504035601 59 217 3.0 8.0 0.00 0.10 0.10 62 1005.2
20260504035057 59 214 2.0 6.0 0.00 0.10 0.10 62 1005.2
20260504034557 60 201 3.0 7.0 0.00 0.10 0.10 61 1005.2
20260504034057 60 207 3.0 7.0 0.00 0.10 0.10 61 1005.2
20260504033557 60 208 2.0 8.0 0.00 0.10 0.10 60 1005.4
20260504033115 60 166 3.0 8.0 0.00 0.10 0.10 60 1005.5
20260504032556 60 183 2.0 7.0 0.00 0.10 0.10 60 1005.5
20260504032057 60 236 3.0 8.0 0.00 0.10 0.10 59 1005.5
20260504031603 60 201 3.0 8.0 0.00 0.10 0.10 59 1005.6
20260504031058 60 258 2.0 8.0 0.00 0.10 0.10 60 1005.7
20260504030556 60 235 1.0 7.0 0.00 0.10 0.10 60 1005.6
20260504030055 60 269 2.0 7.0 0.00 0.10 0.10 60 1005.7
20260504025555 60 195 2.0 6.0 0.00 0.10 0.10 60 1005.7
20260504025055 60 194 2.0 5.0 0.00 0.10 0.10 60 1005.7
20260504024601 60 196 2.0 4.0 0.00 0.10 0.10 60 1005.7
20260504024054 60 261 1.0 5.0 0.00 0.10 0.10 60 1005.7
20260504023556 60 215 1.0 5.0 0.00 0.10 0.10 60 1005.6
20260504023056 60 194 1.0 4.0 0.00 0.10 0.10 60 1005.7
20260504022554 60 221 0.0 3.0 0.00 0.10 0.10 60 1005.7
20260504022053 61 286 0.0 5.0 0.00 0.10 0.10 60 1005.6
20260504021555 61 267 1.0 6.0 0.00 0.10 0.10 60 1005.6
20260504021053 61 193 0.0 6.0 0.00 0.10 0.10 60 1005.6
20260504020554 61 241 1.0 6.0 0.00 0.10 0.10 59 1005.5
20260504020053 61 236 1.0 6.0 0.00 0.10 0.10 59 1005.4
20260504015553 61 227 1.0 4.0 0.00 0.10 0.10 59 1005.4
20260504015052 62 266 2.0 5.0 0.00 0.10 0.10 58 1005.3
20260504014552 62 246 2.0 8.0 0.00 0.10 0.10 58 1005.2
20260504014051 62 235 2.0 8.0 0.00 0.10 0.10 58 1005.3
20260504013551 62 206 1.0 5.0 0.00 0.10 0.10 57 1005.2
20260504013104 62 184 1.0 8.0 0.00 0.10 0.10 57 1005.2
20260504012554 63 204 2.0 8.0 0.00 0.10 0.10 57 1005.2
20260504012055 63 233 2.0 5.0 0.00 0.10 0.10 56 1005.1
20260504011551 63 208 1.0 5.0 0.00 0.10 0.10 56 1005.1
20260504011052 63 290 1.0 6.0 0.00 0.10 0.10 56 1005.1
20260504010550 64 229 0.0 7.0 0.00 0.10 0.10 55 1005.0
20260504010055 64 159 1.0 7.0 0.00 0.10 0.10 54 1005.0
20260504005550 64 198 2.0 11.0 0.00 0.10 0.10 53 1005.0
20260504005051 65 248 1.0 11.0 0.00 0.10 0.10 53 1005.1
20260504004601 65 259 1.0 9.0 0.00 0.10 0.10 52 1005.0
20260504004050 65 191 1.0 5.0 0.00 0.10 0.10 51 1005.0
20260504003552 66 211 1.0 8.0 0.00 0.10 0.10 50 1005.0
20260504003049 66 215 1.0 7.0 0.00 0.10 0.10 49 1005.0
20260504002549 66 265 1.0 7.0 0.00 0.10 0.10 49 1005.0
20260504002052 67 218 1.0 6.0 0.00 0.10 0.10 49 1005.1
20260504001548 67 217 2.0 7.0 0.00 0.10 0.10 48 1005.1
20260504001050 67 257 1.0 9.0 0.00 0.10 0.10 48 1005.1
20260504000546 68 269 2.0 9.0 0.00 0.10 0.10 47 1005.2
20260504000053 68 288 2.0 8.0 0.00 0.10 0.10 46 1005.1
20260503235545 68 266 3.0 9.0 0.00 0.10 0.10 46 1005.1
20260503235048 69 267 2.0 8.0 0.00 0.10 0.10 45 1005.1
20260503234546 69 253 3.0 8.0 0.00 0.10 0.10 45 1005.1
20260503234046 69 266 2.0 9.0 0.00 0.10 0.10 45 1005.1
20260503233546 69 279 3.0 9.0 0.00 0.10 0.10 44 1005.1
20260503233045 69 288 1.0 8.0 0.00 0.10 0.10 45 1005.2
20260503232545 70 246 2.0 9.0 0.00 0.10 0.10 45 1005.2
20260503232045 69 267 2.0 9.0 0.00 0.10 0.10 44 1005.1
20260503231552 69 205 3.0 8.0 0.00 0.10 0.10 44 1005.2
20260503231045 70 271 3.0 9.0 0.00 0.10 0.10 43 1005.2
20260503230545 70 262 3.0 9.0 0.00 0.10 0.10 44 1005.1
20260503230051 70 312 2.0 8.0 0.00 0.10 0.10 43 1005.3
20260503225543 70 286 2.0 13.0 0.00 0.10 0.10 43 1005.4
20260503225044 70 281 3.0 13.0 0.00 0.10 0.10 44 1005.4
20260503224543 69 279 2.0 12.0 0.00 0.10 0.10 44 1005.5
20260503224042 69 258 5.0 12.0 0.00 0.10 0.10 43 1005.5
20260503223542 69 278 3.0 13.0 0.00 0.10 0.10 44 1005.4
20260503223041 69 281 4.0 17.0 0.00 0.10 0.10 44 1005.5
20260503222541 69 231 4.0 10.0 0.00 0.10 0.10 44 1005.6
20260503222042 69 249 5.0 12.0 0.00 0.10 0.10 44 1005.5
20260503221540 69 279 6.0 16.0 0.00 0.10 0.10 43 1005.6
20260503221041 69 250 6.0 16.0 0.00 0.10 0.10 43 1005.7
20260503220539 70 278 5.0 10.0 0.00 0.10 0.10 42 1005.7
20260503220041 70 284 3.0 13.0 0.00 0.10 0.10 43 1005.8
20260503215537 70 246 5.0 13.0 0.00 0.10 0.10 42 1005.8
20260503215036 70 160 3.0 17.0 0.00 0.10 0.10 43 1005.7
20260503214535 69 281 3.0 17.0 0.00 0.10 0.10 43 1005.8
20260503214034 69 188 5.0 13.0 0.00 0.10 0.10 42 1005.8
20260503213534 68 236 5.0 17.0 0.00 0.10 0.10 42 1005.9
20260503213035 68 191 8.0 16.0 0.00 0.10 0.10 42 1005.9
20260503212535 68 271 6.0 12.0 0.00 0.10 0.10 42 1006.1
20260503212031 68 269 5.0 12.0 0.00 0.10 0.10 42 1006.2
20260503211537 68 283 4.0 15.0 0.00 0.10 0.10 43 1006.4
20260503211029 67 205 5.0 15.0 0.00 0.10 0.10 44 1006.5
20260503210528 67 222 8.0 15.0 0.00 0.10 0.10 44 1006.5
20260503210031 67 215 7.0 14.0 0.00 0.10 0.10 43 1006.6
20260503205533 67 240 5.0 14.0 0.00 0.10 0.10 44 1006.7
20260503205025 66 255 5.0 15.0 0.00 0.10 0.10 45 1006.9
20260503204524 66 257 5.0 15.0 0.00 0.10 0.10 44 1007.0
20260503204022 65 283 5.0 17.0 0.00 0.10 0.10 45 1007.0
20260503203522 65 253 9.0 17.0 0.00 0.10 0.10 44 1007.2
20260503203023 65 276 8.0 21.0 0.00 0.10 0.10 44 1007.2
20260503202521 65 265 9.0 24.0 0.00 0.10 0.10 43 1007.4
20260503202021 65 184 7.0 14.0 0.00 0.10 0.10 43 1007.6
20260503201519 65 212 6.0 15.0 0.00 0.10 0.10 43 1007.6
20260503201019 65 288 6.0 17.0 0.00 0.10 0.10 43 1007.7
20260503200519 65 262 10.0 17.0 0.00 0.10 0.10 43 1007.7
20260503200019 65 288 4.0 17.0 0.00 0.10 0.10 45 1007.7
20260503195519 65 279 7.0 18.0 0.00 0.10 0.10 44 1007.7
20260503195017 65 222 8.0 18.0 0.00 0.10 0.10 44 1007.9
20260503194516 65 221 6.0 17.0 0.00 0.10 0.10 44 1007.9
20260503194018 65 194 6.0 19.0 0.00 0.10 0.10 44 1008.1
20260503193516 66 234 8.0 19.0 0.00 0.10 0.10 45 1008.0
20260503193030 65 231 6.0 15.0 0.00 0.10 0.10 48 1008.1
20260503192512 64 218 8.0 15.0 0.00 0.10 0.10 48 1008.2
20260503192012 64 236 7.0 17.0 0.00 0.10 0.10 51 1008.3
20260503191512 63 258 8.0 18.0 0.00 0.10 0.10 51 1008.4
20260503191010 63 269 9.0 18.0 0.00 0.10 0.10 53 1008.3
20260503190508 63 238 6.0 18.0 0.00 0.10 0.10 55 1008.5
20260503190015 62 269 5.0 14.0 0.00 0.10 0.10 56 1008.5
20260503185505 62 233 5.0 16.0 0.00 0.10 0.10 56 1008.6
20260503185004 61 160 6.0 16.0 0.00 0.10 0.10 60 1008.7
20260503184503 60 233 6.0 15.0 0.00 0.10 0.10 61 1008.9
20260503184003 60 151 5.0 19.0 0.00 0.10 0.10 62 1009.0
20260503183501 59 134 8.0 18.0 0.00 0.10 0.10 63 1009.1
20260503183103 59 322 7.0 16.0 0.00 0.10 0.10 63 1009.1
20260503183001 59 187 6.0 16.0 0.00 0.10 0.10 63 1009.1
20260503182601 59 165 4.0 12.0 0.00 0.10 0.10 66 1009.2
20260503182056 58 153 5.0 13.0 0.00 0.10 0.10 66 1009.4
20260503181601 57 229 5.0 15.0 0.00 0.10 0.10 66 1009.5
20260503181055 57 95 4.0 16.0 0.00 0.10 0.10 68 1009.7
20260503180552 56 236 5.0 16.0 0.00 0.10 0.10 71 1009.8
20260503180051 55 142 6.0 14.0 0.01 0.10 0.10 72 1010.0
20260503175548 54 159 4.0 11.0 0.01 0.10 0.10 74 1010.1
20260503175047 54 167 3.0 14.0 0.02 0.10 0.10 79 1010.3
20260503174602 53 146 5.0 14.0 0.02 0.10 0.10 77 1010.4
20260503174046 52 181 3.0 13.0 0.02 0.10 0.10 79 1010.4
20260503173546 51 279 5.0 15.0 0.03 0.10 0.10 78 1010.4
20260503173048 51 163 4.0 11.0 0.03 0.10 0.10 80 1010.6
20260503172543 50 175 3.0 11.0 0.04 0.10 0.10 84 1010.9
20260503172042 49 239 4.0 13.0 0.05 0.10 0.10 83 1011.2
20260503171540 49 181 4.0 13.0 0.05 0.10 0.10 84 1011.5
20260503171040 48 217 3.0 8.0 0.05 0.10 0.10 85 1011.5
20260503170540 48 156 4.0 10.0 0.05 0.09 0.09 85 1011.7
20260503150524 51 274 4.0 11.0 0.01 0.01 0.01 71 1014.1
20260503131004 49 208 3.0 8.0 0.00 0.00 0.00 64 1014.2
20260503130503 49 209 2.0 8.0 0.00 0.00 0.00 64 1014.1
20260503110550 47 289 3.0 9.0 0.00 0.00 0.00 63 1013.9
20260503081543 45 218 1.0 8.0 0.00 0.00 0.00 62 1014.8
20260503081030 45 185 1.0 6.0 0.00 0.00 0.00 61 1014.8
20260503080529 45 272 2.0 8.0 0.00 0.00 0.00 61 1014.8
20260503072526 45 224 0.0 5.0 0.00 0.00 0.00 60 1014.9
20260503072028 45 222 2.0 6.0 0.00 0.00 0.00 60 1014.9
20260503071532 45 213 2.0 6.0 0.00 0.00 0.00 60 1015.0
20260503071021 45 193 1.0 5.0 0.00 0.00 0.00 59 1015.0
20260503070521 45 243 2.0 6.0 0.00 0.00 0.00 60 1015.0
20260503055005 46 200 1.0 5.0 0.00 0.00 0.00 57 1015.6
20260503054520 46 269 1.0 5.0 0.00 0.00 0.00 57 1015.7
20260503054006 46 152 0.0 4.0 0.00 0.00 0.00 57 1015.7